Вернуться в каталог

STARLINK-5658

АктивенСвязьVLEO
NORAD 55338·PAYLOAD·🇺🇸 United States

Запущен Jan 26, 2023 с Cape Canaveral Space Force Station

Loading…

Ближайшие Пролёты (ближайшие 24 часа)

TLE

СвежийSource: CelesTrak SupGP

Эпоха: Sep 14, 2026, 20:47 UTC

1 55338C 23013H   26257.86645833 -.00053253  00000+0 -19289-2 0  2575
2 55338  43.0029 315.3282 0001632 281.8067  26.7399 15.27603996    17

Отслеживайте STARLINK-5658 в реальном времени с AllMySat

Download on the App Store